This is the latest recevied weather packets stored in our database for station/object DG0LHZ-10. If no packets are shown the sender has not sent any weather packets the latest 10 day(s).
| Time | Temp. | Humidity | Pressure | Rain* | Wind** | Luminosity | Snow |
|---|---|---|---|---|---|---|---|
| 1777917870 | 27.22° C | 30% | 1013.3 hPa | - | - | - | - |
| 1777916970 | 27.78° C | 29% | 1013.1 hPa | - | - | - | - |
| 1777916070 | 28.33° C | 29% | 1013.2 hPa | - | - | - | - |
| 1777915170 | 28.89° C | 29% | 1013.2 hPa | - | - | - | - |
| 1777914269 | 29.44° C | 28% | 1013.3 hPa | - | - | - | - |
| 1777913369 | 29.44° C | 28% | 1013.3 hPa | - | - | - | - |
| 1777912469 | 30° C | 28% | 1013.5 hPa | - | - | - | - |
| 1777911569 | 30.56° C | 27% | 1013.5 hPa | - | - | - | - |
| 1777910669 | 31.11° C | 27% | 1013.5 hPa | - | - | - | - |
| 1777909769 | 31.11° C | 28% | 1013.6 hPa | - | - | - | - |
| 1777908869 | 31.11° C | 27% | 1013.6 hPa | - | - | - | - |
| 1777907969 | 31.67° C | 27% | 1013.8 hPa | - | - | - | - |
| 1777907069 | 31.11° C | 28% | 1013.8 hPa | - | - | - | - |
| 1777906169 | 31.67° C | 27% | 1013.9 hPa | - | - | - | - |
| 1777905269 | 31.67° C | 27% | 1014.1 hPa | - | - | - | - |
| 1777904369 | 31.67° C | 27% | 1014.2 hPa | - | - | - | - |
| 1777903469 | 31.67° C | 27% | 1014.2 hPa | - | - | - | - |
| 1777902568 | 31.67° C | 27% | 1014.3 hPa | - | - | - | - |
| 1777901668 | 31.11° C | 27% | 1014.4 hPa | - | - | - | - |
| 1777900768 | 31.11° C | 27% | 1014.4 hPa | - | - | - | - |
| 1777899868 | 31.11° C | 27% | 1014.5 hPa | - | - | - | - |
| 1777898968 | 31.67° C | 26% | 1014.6 hPa | - | - | - | - |
| 1777898068 | 31.67° C | 27% | 1014.6 hPa | - | - | - | - |
| 1777897168 | 31.67° C | 27% | 1014.6 hPa | - | - | - | - |
| 1777896268 | 31.67° C | 27% | 1014.7 hPa | - | - | - | - |
* Rain since midnight (hover to see other rain measurements)
** Current wind speed in m/s (hover to see current wind gust speed)